Voltar ao catálogo

COSMOS 385

AtivoMilitarLEO
NORAD 4799·PAYLOAD·🇷🇺 Russia

Lançado Dec 12, 1970 de Plesetsk Cosmodrome

Loading…

Próximas Passagens (próximas 24 horas)

TLE

AtualizadoSource: Space-Track

Época: Sep 14, 2026, 09:50 UTC

1 04799U 70108A   26257.41033179 -.00000013  00000-0  94424-5 0  9998
2 04799  74.0187 241.0240 0003640 182.9453 329.9737 13.76985961800830

Acompanhe COSMOS 385 em tempo real com AllMySat

Download on the App Store